Michigan City, IN

2:07 PM CDT on June 25, 2017 (GMT -0500)
Michigan City Municipal

Weather History for KMGC - February, 2013

Change the Weather History Date:

Friday, February 8, 2013

  Actual Average (KSBN) Record (KSBN)
Temperature  
Mean Temperature 32 °F -  
Max Temperature 33 °F 31 °F 66 °F (1925)
Min Temperature 30 °F 14 °F -14 °F (1895)
Degree Days  
Heating Degree Days 34    
Moisture  
Dew Point 27 °F    
Average Humidity 83    
Maximum Humidity 93    
Minimum Humidity 64    
Precipitation  
Precipitation 0.00 in - - ()
Sea Level Pressure  
Sea Level Pressure 30.17 in    
Wind  
Wind Speed 11 mph (North)    
Max Wind Speed 18 mph    
Max Gust Speed 26 mph    
Visibility 9 miles    
Events Snow    
Averages and records for this station are not official NWS values.
T = Trace of Precipitation, MM = Missing Value Source: NWS Daily Summary

Daily Weather History Graph

Daily Weather History Graph

Search for Another Location

Airport or City:

Trip Planner

Search our weather history database for the weather conditions in past years. The results will help you decide how hot, cold, wet, or windy it might be!

Date:

Astronomy

Feb. 08, 2013 Rise Set
Actual Time 6:51 AM CST 5:12 PM CST
Civil Twilight 6:22 AM CST 5:41 PM CST
Nautical Twilight 5:49 AM CST 6:13 PM CST
Astronomical Twilight 5:17 AM CST 6:46 PM CST
Moon 5:20 AM CST (2/8) 3:44 PM CST (2/8)
Length of Visible Light 11h 18m
Length of Day
10h 20m
Waning Crescent, 3% of the Moon is Illuminated
Feb 8
Waning Crescent
Feb 10
New
Feb 17
First Quarter
Feb 25
Full
Mar 4
Last Quarter

Hourly Weather History & Observations

Time (CST) Temp. Windchill Dew Point Humidity Pressure Visibility Wind Dir Wind Speed Gust Speed Precip Events Conditions
12:15 AM 33.8 °F 27.0 °F 32.0 °F 93% 29.86 in 10.0 mi NW 8.1 mph - N/A   Light Drizzle
12:35 AM 33.8 °F 27.0 °F 32.0 °F 93% 29.87 in 10.0 mi NW 8.1 mph - N/A   Overcast
12:55 AM 33.8 °F 27.0 °F 32.0 °F 93% 29.87 in 7.0 mi NNW 8.1 mph - N/A   Overcast
1:15 AM 33.8 °F 25.8 °F 32.0 °F 93% 29.88 in 10.0 mi NW 10.4 mph 19.6 mph N/A   Overcast
1:35 AM 33.8 °F 24.8 °F 32.0 °F 93% 29.89 in 10.0 mi NNW 12.7 mph 21.9 mph N/A   Overcast
1:55 AM 33.8 °F 24.3 °F 32.0 °F 93% 29.90 in 10.0 mi NNW 13.8 mph 20.7 mph N/A   Overcast
2:15 AM 33.8 °F 24.3 °F 32.0 °F 93% 29.91 in 10.0 mi NNW 13.8 mph 23.0 mph N/A   Overcast
2:35 AM 33.8 °F 23.5 °F 32.0 °F 93% 29.91 in 10.0 mi North 16.1 mph 25.3 mph N/A   Overcast
2:55 AM 33.8 °F 23.2 °F 30.2 °F 87% 29.92 in 10.0 mi North 17.3 mph 24.2 mph N/A Snow Light Snow
3:15 AM 33.8 °F 24.8 °F 30.2 °F 87% 29.94 in 10.0 mi NNW 12.7 mph 24.2 mph N/A   Overcast
3:55 AM 32.0 °F 23.0 °F 30.2 °F 93% 29.97 in 5.0 mi NNW 11.5 mph 23.0 mph N/A Snow Light Snow
4:15 AM 32.0 °F 23.0 °F 30.2 °F 93% 29.98 in 10.0 mi NNW 11.5 mph 24.2 mph N/A Snow Light Snow
4:35 AM 32.0 °F 22.1 °F 30.2 °F 93% 29.99 in 5.0 mi NNW 13.8 mph 23.0 mph N/A Snow Light Snow
4:55 AM 32.0 °F 21.2 °F 30.2 °F 93% 30.00 in 7.0 mi NNW 16.1 mph 25.3 mph N/A Snow Light Snow
5:15 AM 32.0 °F 21.2 °F 30.2 °F 93% 30.01 in 10.0 mi NNW 16.1 mph 21.9 mph N/A   Overcast
5:35 AM 32.0 °F 21.6 °F 30.2 °F 93% 30.02 in 10.0 mi North 15.0 mph 25.3 mph N/A   Overcast
5:55 AM 32.0 °F 21.6 °F 30.2 °F 93% 30.03 in 10.0 mi North 15.0 mph 26.5 mph N/A   Overcast
6:15 AM 32.0 °F 22.1 °F 28.4 °F 87% 30.05 in 10.0 mi North 13.8 mph 24.2 mph N/A   Overcast
6:35 AM 32.0 °F 20.8 °F 28.4 °F 87% 30.06 in 10.0 mi North 17.3 mph 21.9 mph N/A   Overcast
6:55 AM 32.0 °F 21.6 °F 28.4 °F 87% 30.08 in 10.0 mi North 15.0 mph 25.3 mph N/A   Overcast
7:15 AM 32.0 °F 21.6 °F 28.4 °F 87% 30.08 in 10.0 mi North 15.0 mph 24.2 mph N/A   Overcast
7:35 AM 32.0 °F 22.1 °F 28.4 °F 87% 30.10 in 10.0 mi North 13.8 mph 25.3 mph N/A   Overcast
7:55 AM 32.0 °F 21.6 °F 28.4 °F 87% 30.11 in 10.0 mi North 15.0 mph 20.7 mph N/A   Overcast
8:15 AM 32.0 °F 22.5 °F 28.4 °F 87% 30.12 in 10.0 mi North 12.7 mph 19.6 mph N/A   Overcast
8:35 AM 32.0 °F 22.1 °F 28.4 °F 87% 30.13 in 10.0 mi North 13.8 mph 21.9 mph N/A   Overcast
8:55 AM 32.0 °F 22.1 °F 26.6 °F 80% 30.14 in 10.0 mi North 13.8 mph 21.9 mph N/A   Overcast
9:15 AM 32.0 °F 22.1 °F 26.6 °F 80% 30.16 in 10.0 mi North 13.8 mph 23.0 mph N/A   Overcast
9:35 AM 32.0 °F 23.0 °F 26.6 °F 80% 30.17 in 10.0 mi North 11.5 mph 23.0 mph N/A   Overcast
9:55 AM 32.0 °F 21.6 °F 26.6 °F 80% 30.19 in 10.0 mi North 15.0 mph 19.6 mph N/A   Overcast
10:15 AM 32.0 °F 20.5 °F 26.6 °F 80% 30.20 in 10.0 mi North 18.4 mph 23.0 mph N/A   Overcast
10:35 AM 32.0 °F 22.5 °F 26.6 °F 80% 30.21 in 10.0 mi North 12.7 mph 24.2 mph N/A   Overcast
10:55 AM 32.0 °F 21.2 °F 26.6 °F 80% 30.22 in 10.0 mi North 16.1 mph 21.9 mph N/A   Overcast
11:15 AM 32.0 °F 22.1 °F 26.6 °F 80% 30.22 in 10.0 mi North 13.8 mph 25.3 mph N/A   Overcast
11:35 AM 32.0 °F 21.6 °F 26.6 °F 80% 30.22 in 10.0 mi North 15.0 mph 21.9 mph N/A   Overcast
11:55 AM 32.0 °F 23.0 °F 26.6 °F 80% 30.22 in 10.0 mi North 11.5 mph 19.6 mph N/A   Overcast
12:15 PM 32.0 °F 23.6 °F 26.6 °F 80% 30.23 in 10.0 mi North 10.4 mph 20.7 mph N/A   Overcast
12:35 PM 32.0 °F 22.1 °F 26.6 °F 80% 30.23 in 10.0 mi North 13.8 mph 20.7 mph N/A   Overcast
12:55 PM 32.0 °F 24.2 °F 26.6 °F 80% 30.23 in 10.0 mi North 9.2 mph - N/A   Overcast
1:15 PM 32.0 °F 23.6 °F 26.6 °F 80% 30.24 in 10.0 mi North 10.4 mph 19.6 mph N/A   Overcast
1:35 PM 32.0 °F 23.0 °F 26.6 °F 80% 30.24 in 10.0 mi North 11.5 mph 20.7 mph N/A   Overcast
1:55 PM 32.0 °F 23.0 °F 26.6 °F 80% 30.24 in 10.0 mi North 11.5 mph 17.3 mph N/A   Overcast
2:15 PM 32.0 °F 24.2 °F 26.6 °F 80% 30.25 in 10.0 mi North 9.2 mph 17.3 mph N/A   Overcast
2:35 PM 32.0 °F 22.5 °F 24.8 °F 75% 30.25 in 10.0 mi North 12.7 mph 20.7 mph N/A   Overcast
2:55 PM 32.0 °F 24.2 °F 26.6 °F 80% 30.26 in 10.0 mi North 9.2 mph 19.6 mph N/A   Overcast
3:15 PM 32.0 °F 24.2 °F 28.4 °F 87% 30.27 in 5.0 mi NNW 9.2 mph 17.3 mph N/A Snow Light Snow
3:35 PM 32.0 °F 22.5 °F 30.2 °F 93% 30.27 in 2.0 mi NNW 12.7 mph 20.7 mph N/A Snow Light Snow
3:55 PM 32.0 °F 23.0 °F 30.2 °F 93% 30.28 in 2.5 mi NNW 11.5 mph 18.4 mph N/A Snow Light Snow
4:15 PM 32.0 °F 23.6 °F 30.2 °F 93% 30.29 in 5.0 mi North 10.4 mph 17.3 mph N/A   Overcast
4:35 PM 32.0 °F 24.2 °F 28.4 °F 87% 30.29 in 10.0 mi NNW 9.2 mph 21.9 mph N/A   Overcast
4:55 PM 32.0 °F 23.0 °F 28.4 °F 87% 30.30 in 10.0 mi NNW 11.5 mph 18.4 mph N/A   Overcast
5:15 PM 32.0 °F 24.8 °F 28.4 °F 87% 30.30 in 10.0 mi NNW 8.1 mph 16.1 mph N/A   Overcast
5:55 PM 32.0 °F 24.2 °F 26.6 °F 80% 30.31 in 10.0 mi NNW 9.2 mph - N/A   Overcast
6:15 PM 32.0 °F 25.6 °F 26.6 °F 80% 30.32 in 10.0 mi NNW 6.9 mph - N/A   Overcast
6:55 PM 32.0 °F 24.2 °F 24.8 °F 75% 30.34 in 10.0 mi NNW 9.2 mph - N/A   Overcast
7:15 PM 32.0 °F 25.6 °F 24.8 °F 75% 30.33 in 10.0 mi North 6.9 mph - N/A   Overcast
7:35 PM 32.0 °F 26.4 °F 23.0 °F 69% 30.33 in 10.0 mi NNW 5.8 mph - N/A   Overcast
7:55 PM 32.0 °F 26.4 °F 23.0 °F 69% 30.34 in 10.0 mi NNW 5.8 mph - N/A   Overcast
8:15 PM 32.0 °F 28.7 °F 23.0 °F 69% 30.35 in 10.0 mi NNW 3.5 mph - N/A   Overcast
8:35 PM 32.0 °F 27.5 °F 23.0 °F 69% 30.35 in 10.0 mi NW 4.6 mph - N/A   Overcast
8:55 PM 32.0 °F 26.4 °F 23.0 °F 69% 30.35 in 10.0 mi North 5.8 mph - N/A   Overcast
9:15 PM 32.0 °F 25.6 °F 23.0 °F 69% 30.35 in 10.0 mi NNW 6.9 mph - N/A   Overcast
9:35 PM 32.0 °F 26.4 °F 23.0 °F 69% 30.35 in 10.0 mi North 5.8 mph - N/A   Overcast
9:55 PM 32.0 °F 27.5 °F 21.2 °F 64% 30.36 in 10.0 mi North 4.6 mph - N/A   Overcast
10:15 PM 32.0 °F 27.5 °F 21.2 °F 64% 30.36 in 10.0 mi North 4.6 mph - N/A   Overcast
10:35 PM 32.0 °F 27.5 °F 23.0 °F 69% 30.36 in 10.0 mi NE 4.6 mph - N/A   Overcast
10:55 PM 30.2 °F - 23.0 °F 75% 30.36 in 10.0 mi Calm Calm - N/A   Overcast
11:15 PM 30.2 °F - 23.0 °F 75% 30.35 in 10.0 mi Calm Calm - N/A   Overcast
11:35 PM 30.2 °F - 23.0 °F 75% 30.36 in 10.0 mi Calm Calm - N/A   Overcast
11:55 PM 30.2 °F - 23.0 °F 75% 30.36 in 10.0 mi Calm Calm - N/A   Overcast